Wetbulb
66.79 66.46 66.81 68.04 68.59 68.74 68.24 67.86 67.40 67.25 66.98 66.72 66.40 66.42 66.91 67.72 68.24 68.44 68.53 70.73 71.74 71.84 72.22 72.15 71.24 69.79 69.92 69.16 70.62 72.12 72.58 72.30 72.50 71.69 71.38 71.59 72.07 72.22 72.49 72.40 72.57 72.36 71.89
66.43 65.81 65.74 66.90 67.90 68.78 68.66 67.98 67.84 67.64 67.27 66.86 66.95 67.55 67.94 68.38 68.72 68.87 69.61 71.82 69.58 69.51 70.06 70.15 69.80 68.86 68.58 68.38 65.75 69.40 72.48 72.28 71.98 71.58 71.38 71.44 71.40 71.07 71.95 72.48 72.72 72.67 71.97
66.59 65.70 64.83 65.90 67.78 69.34 69.15 68.65 67.95 67.74 66.88 67.08 66.76 67.12 67.12 67.21 67.79 69.94 71.38 71.32 68.78 68.71 69.23 69.93 69.07 67.25 67.54 68.05 69.23 72.42 72.80 72.14 72.20 71.37 71.06 71.09 71.76 70.90 70.85 73.01 73.21 73.17 72.45
68.35 67.35 66.59 67.37 69.66 69.38 68.66 68.72 68.87 67.58 66.28 65.54 65.82 66.65 67.60 68.87 70.09 71.23 71.43 70.40 68.40 69.05 67.91 68.35 70.26 70.25 69.55 70.54 71.83 73.00 72.38 71.00 71.59 71.68 70.88 71.09 71.32 71.06 71.53 72.57 73.12 73.10 72.61
69.24 68.62 68.72 70.10 71.32 70.72 70.80 69.67 68.62 66.63 65.85 65.78 64.59 66.75 67.72 68.10 69.08 70.11 69.32 68.82 69.33 68.90 68.19 67.75 68.53 69.67 70.16 70.89 72.11 73.12 72.11 70.68 70.71 71.49 71.26 70.98 70.91 70.92 71.10 71.93 72.76 72.77 72.62
69.79 69.77 70.21 70.93 71.25 70.44 69.59 68.76 67.68 67.34 65.11 63.47 64.20 65.34 65.76 66.32 68.00 68.22 66.77 67.63 68.10 68.12 68.05 68.19 69.08 69.70 69.44 69.54 69.85 70.04 70.70 71.09 70.69 71.46 71.33 70.86 69.99 70.19 70.41 71.31 72.26 72.33 72.23
71.32 70.61 71.14 70.98 70.23 68.54 68.21 68.41 67.80 66.26 65.10 64.37 63.65 65.04 65.35 66.12 65.98 66.00 67.20 66.50 66.11 66.74 66.92 67.76 67.99 66.82 67.39 67.79 68.15 68.67 69.81 70.18 69.95 70.19 69.78 69.77 70.08 70.05 69.85 70.88 70.59 70.75 70.81
70.46 70.55 69.63 67.94 67.46 67.60 67.69 67.53 67.01 65.79 65.89 65.42 63.57 62.48 60.50 63.05 64.97 66.33 66.19 65.55 63.16 65.20 61.60 64.81 61.06 63.77 66.14 66.35 66.49 66.62 66.53 67.04 67.98 68.35 68.57 68.40 69.22 70.09 70.25 69.92 69.66 70.11 70.10
68.77 68.39 67.78 67.64 66.61 66.22 64.57 63.64 64.89 65.46 64.36 65.24 65.13 63.17 60.75 59.97 60.73 64.92 63.76 60.92 57.68 57.38 57.63 58.55 58.15 63.08 63.14 61.76 60.97 62.53 61.79 61.63 63.64 64.06 64.30 65.54 66.54 67.62 69.10 69.83 69.13 69.84 69.96
65.41 64.41 63.50 62.96 62.61 60.87 58.82 59.24 59.52 60.51 63.35 58.07 62.60 60.50 63.37 60.21 55.16 53.88 58.35 58.17 54.15 54.46 56.02 54.11 57.65 59.53 58.60 56.42 55.77 57.11 58.00 58.53 59.50 60.35 60.74 61.68 63.00 65.77 66.68 67.96 69.51 69.53 69.68
60.99 60.00 58.67 57.15 56.39 56.14 55.62 54.32 54.57 54.45 55.00 55.54 55.10 54.64 56.08 56.36 53.96 50.88 49.73 50.00 51.26 52.48 53.97 53.49 54.71 57.03 55.02 53.50 54.23 54.65 55.65 56.17 57.07 57.43 59.41 60.12 61.21 63.40 65.26 66.28 67.27 68.90 69.60
55.05 55.78 55.56 54.79 54.02 53.25 52.80 52.71 52.79 52.38 52.46 52.36 52.47 51.53 50.67 50.28 49.97 49.35 47.45 46.31 46.33 50.78 50.68 51.94 53.35 52.75 52.46 51.83 53.08 54.63 54.88 54.04 53.81 55.96 56.96 56.49 58.15 60.10 62.52 64.32 65.71 67.38 69.02
52.46 53.04 52.86 52.05 51.26 51.18 50.26 50.26 50.40 50.59 50.55 50.52 50.64 49.98 50.06 49.58 49.32 48.74 47.02 44.76 45.01 47.00 50.25 52.17 52.07 51.57 51.29 51.28 51.48 53.78 54.38 53.01 52.58 54.80 54.87 54.22 56.47 57.63 60.44 62.51 64.37 66.29 68.28
51.61 52.05 50.14 49.70 49.58 49.75 49.32 49.06 48.78 49.29 49.39 48.99 48.65 48.67 48.55 48.43 48.66 47.68 46.12 44.24 43.08 45.01 47.25 49.09 49.99 50.32 50.94 50.68 52.14 53.54 52.50 51.77 52.27 53.11 52.81 53.18 55.08 55.74 57.06 60.24 62.46 63.92 64.68
50.15 49.31 48.42 47.79 48.12 48.45 48.22 48.04 47.60 47.73 48.56 48.50 48.36 48.42 47.99 48.31 48.06 47.51 47.09 46.12 44.01 41.67 43.34 47.85 47.47 50.58 49.81 50.09 51.24 52.36 51.77 50.83 52.09 51.60 52.18 53.38 54.10 53.35 55.61 57.37 59.11 61.39 63.00
48.89 47.92 47.33 47.09 46.99 46.98 47.13 47.38 47.21 48.13 47.94 47.93 48.37 48.52 48.25 48.08 48.23 48.13 47.57 46.80 45.60 44.35 42.71 46.74 46.97 49.17 49.65 49.96 51.08 50.72 50.28 51.67 50.45 50.79 51.45 53.40 52.41 52.09 53.59 55.05 57.35 59.20 61.58
48.23 47.63 47.45 47.09 46.54 46.11 46.15 46.06 47.06 47.25 47.54 47.79 48.36 48.13 48.02 49.08 48.08 48.27 47.97 47.38 46.41 45.50 43.40 45.29 47.77 48.50 47.86 48.26 48.91 50.45 50.28 49.35 49.70 50.46 51.24 52.70 51.30 51.20 51.94 53.73 54.34 56.07 58.22
47.25 47.31 47.49 47.04 46.77 46.36 46.03 45.55 45.42 45.85 46.18 46.76 47.40 47.64 47.66 48.72 48.22 48.73 47.37 46.55 46.48 46.98 45.19 43.61 46.37 47.08 47.62 47.77 47.89 47.75 49.58 49.56 48.81 49.94 51.44 52.14 50.67 50.38 50.77 52.11 52.39 52.44 53.53
46.42 46.78 46.96 46.57 46.19 45.84 45.45 45.64 45.38 45.36 45.92 46.55 47.01 47.15 47.67 48.40 48.34 48.37 47.33 46.89 47.18 47.23 47.25 45.38 44.72 47.01 46.41 46.87 45.38 45.99 46.65 47.91 49.39 51.29 50.84 50.22 49.98 49.38 50.20 51.83 52.29 52.21 52.35
46.55 46.48 46.41 46.12 45.50 45.04 45.22 45.55 45.29 45.29 45.87 46.57 47.05 47.14 47.97 49.05 48.63 47.93 47.48 47.55 47.53 46.91 46.87 46.17 45.50 45.03 45.20 46.07 44.93 43.19 43.06 45.76 46.78 49.32 49.57 49.17 49.00 48.60 49.16 50.93 53.32 52.90 51.65
47.05 47.13 45.24 44.39 44.55 44.84 44.89 45.62 44.82 44.81 45.13 45.73 46.41 46.62 48.11 50.15 49.04 47.95 47.11 46.92 46.80 45.58 45.26 45.08 44.93 45.19 44.66 43.85 42.04 43.37 43.09 44.38 45.87 48.82 46.80 47.51 48.41 48.62 49.56 50.06 52.32 51.66 50.17
45.23 44.56 43.42 43.25 42.87 44.24 43.33 45.46 44.51 44.49 44.77 44.97 45.48 46.48 47.42 48.34 47.23 46.24 46.53 47.45 47.08 45.55 44.73 44.45 44.62 44.04 44.81 44.74 43.81 42.85 43.53 42.97 42.18 49.13 46.03 46.75 47.44 48.06 49.65 51.05 49.08 49.38 49.16
43.68 42.54 42.48 42.76 42.49 43.03 42.19 43.13 44.63 44.53 44.84 45.27 46.31 46.78 46.62 46.87 46.49 45.14 45.47 46.27 46.51 46.68 47.29 46.16 44.62 44.68 45.04 46.61 44.05 42.95 43.66 43.77 43.64 45.72 46.89 44.57 47.00 46.22 48.95 51.90 48.73 48.23 47.73
43.16 42.24 42.05 42.10 42.35 43.14 41.68 41.65 43.44 44.80 45.08 45.50 46.33 46.92 46.24 45.21 44.95 43.50 44.53 44.66 45.47 46.00 46.80 46.37 46.98 47.40 47.31 47.83 47.13 44.31 44.62 45.18 46.59 47.17 46.95 43.44 46.62 46.54 49.10 50.61 49.55 48.67 47.22
43.07 42.54 42.59 42.13 41.76 42.33 40.92 40.74 42.31 43.87 44.04 44.29 45.29 45.68 45.62 44.09 41.54 41.10 43.00 42.29 43.23 44.98 46.05 45.92 45.63 44.57 43.76 44.16 45.02 46.42 44.54 42.73 42.29 44.52 48.08 46.16 46.09 46.29 48.10 49.47 50.50 49.99 47.73
43.52 43.22 42.05 41.89 42.03 41.34 40.27 39.98 41.22 42.50 42.79 42.81 44.34 44.40 43.50 41.97 39.92 39.88 41.79 40.78 40.71 41.97 43.04 45.57 47.52 48.04 47.64 48.52 47.70 47.22 45.50 42.22 42.70 42.64 48.17 45.50 46.10 46.91 44.87 50.01 50.16 51.16 51.13
MSLP
1015.59 1015.61 1015.51 1015.22 1015.05 1015.06 1014.97 1014.93 1014.89 1014.57 1014.38 1014.10 1013.86 1013.83 1013.48 1013.06 1012.80 1012.52 1012.31 1012.25 1012.20 1011.89 1011.50 1011.23 1011.07 1011.14 1011.47 1010.94 1010.57 1011.49 1011.18 1010.72 1010.41 1010.17 1010.34 1010.10 1009.70 1009.90 1009.64 1009.76 1010.03 1010.26 1010.61
1015.24 1015.34 1015.18 1015.01 1014.85 1014.85 1014.70 1014.72 1014.48 1014.53 1014.28 1014.02 1013.67 1013.29 1013.00 1012.80 1012.50 1012.44 1012.04 1011.77 1011.81 1011.66 1011.23 1010.96 1010.61 1010.15 1009.64 1009.48 1010.22 1010.53 1010.46 1010.18 1010.15 1009.89 1009.59 1009.44 1008.88 1009.08 1009.11 1008.88 1009.07 1009.44 1009.91
1015.37 1015.43 1015.23 1014.88 1014.65 1014.58 1014.58 1014.43 1014.17 1014.28 1014.30 1013.92 1013.51 1013.12 1012.73 1012.39 1012.27 1011.94 1011.70 1011.58 1011.90 1011.74 1011.15 1010.64 1010.79 1010.13 1009.52 1009.31 1009.58 1009.82 1010.08 1009.70 1009.58 1009.49 1009.27 1008.78 1008.36 1008.56 1008.61 1008.49 1008.43 1008.67 1008.91
1014.55 1014.92 1014.95 1014.55 1014.24 1014.19 1014.13 1014.36 1014.42 1014.36 1014.32 1014.02 1013.53 1013.05 1012.68 1012.53 1012.29 1011.96 1011.74 1011.92 1011.92 1011.45 1011.06 1010.59 1010.06 1010.01 1009.96 1009.52 1009.55 1009.11 1009.34 1009.37 1009.07 1008.80 1008.63 1008.12 1007.76 1007.78 1007.83 1007.74 1007.73 1007.94 1008.12
1014.02 1014.35 1014.27 1014.16 1014.28 1014.38 1014.46 1014.34 1014.39 1014.45 1014.34 1014.16 1013.67 1013.05 1012.64 1012.38 1012.00 1011.76 1012.00 1011.97 1011.59 1011.54 1011.22 1010.78 1010.34 1009.95 1009.92 1009.47 1008.99 1008.94 1008.97 1008.77 1008.61 1008.27 1007.95 1007.75 1007.33 1007.07 1007.15 1007.15 1007.08 1007.42 1007.61
1013.61 1014.07 1013.93 1013.97 1014.32 1014.71 1014.62 1014.36 1014.27 1014.24 1014.36 1014.28 1013.69 1012.84 1012.50 1012.02 1011.81 1012.05 1011.94 1011.76 1011.57 1011.54 1011.30 1010.98 1010.59 1010.34 1010.00 1009.61 1009.19 1008.99 1008.67 1008.51 1008.18 1007.75 1007.55 1007.18 1006.91 1006.62 1006.60 1006.62 1006.81 1006.65 1007.01
1013.45 1014.02 1013.98 1014.18 1014.42 1014.81 1014.84 1014.57 1014.25 1014.33 1014.42 1014.46 1013.92 1012.78 1012.03 1011.69 1011.72 1011.98 1011.92 1011.79 1011.76 1011.48 1011.23 1011.02 1010.95 1010.70 1009.99 1009.50 1009.16 1008.81 1008.51 1008.14 1007.84 1007.52 1007.31 1006.74 1006.31 1006.10 1006.02 1006.09 1006.26 1006.30 1006.58
1013.68 1013.97 1014.22 1014.36 1014.44 1014.30 1014.38 1014.87 1014.47 1014.77 1014.90 1014.96 1014.88 1014.21 1012.99 1012.02 1012.05 1012.05 1012.08 1012.08 1012.12 1012.05 1012.02 1011.56 1011.27 1010.71 1010.23 1009.81 1009.29 1008.83 1008.60 1008.36 1007.82 1007.33 1006.92 1006.45 1005.97 1005.74 1005.50 1005.51 1005.59 1005.57 1005.97
1014.23 1014.37 1014.72 1015.02 1015.06 1014.82 1014.86 1014.95 1014.79 1014.99 1015.39 1015.19 1015.08 1015.14 1014.37 1013.79 1013.24 1012.07 1011.88 1012.42 1012.61 1012.55 1012.29 1011.86 1011.50 1011.01 1010.80 1010.56 1010.06 1009.40 1009.00 1008.59 1007.97 1007.51 1007.01 1006.47 1005.97 1005.55 1005.29 1005.04 1004.85 1004.98 1004.86
1015.90 1015.38 1015.56 1016.11 1016.20 1015.86 1015.19 1015.25 1015.46 1015.67 1015.49 1015.96 1015.39 1015.31 1015.18 1015.20 1014.78 1013.50 1012.84 1012.80 1012.84 1012.92 1012.63 1012.13 1011.90 1011.56 1011.27 1010.99 1010.63 1010.11 1009.42 1008.83 1008.36 1007.84 1007.22 1006.68 1006.05 1005.40 1004.84 1004.35 1004.19 1003.99 1003.97
1015.76 1015.89 1016.01 1016.18 1016.68 1016.73 1016.66 1016.27 1016.19 1016.39 1016.55 1016.65 1016.51 1016.30 1015.97 1015.77 1015.93 1015.91 1014.30 1013.91 1014.00 1013.53 1012.87 1012.44 1012.10 1011.72 1011.59 1011.31 1010.75 1010.13 1009.71 1009.17 1008.46 1007.86 1007.16 1006.50 1005.94 1005.15 1004.47 1003.88 1003.52 1003.17 1002.97
1017.01 1016.82 1016.79 1017.11 1017.43 1017.53 1017.32 1017.09 1016.89 1017.04 1017.34 1017.38 1017.38 1017.30 1017.29 1017.32 1017.10 1016.97 1016.29 1015.35 1014.78 1013.87 1013.12 1012.66 1012.28 1011.89 1011.57 1011.27 1010.68 1010.01 1009.34 1008.92 1008.38 1007.76 1007.16 1006.52 1005.79 1004.97 1004.18 1003.62 1003.08 1002.52 1002.17
1017.43 1017.67 1017.66 1018.29 1018.32 1018.42 1017.86 1017.45 1017.25 1017.32 1017.72 1017.92 1017.78 1018.13 1018.17 1017.94 1017.83 1017.79 1017.38 1016.59 1015.92 1014.24 1013.59 1012.88 1012.42 1012.14 1011.63 1011.21 1010.64 1009.90 1009.24 1008.84 1008.27 1007.51 1006.82 1006.23 1005.63 1004.94 1004.03 1003.14 1002.63 1002.21 1001.49
1018.77 1018.53 1018.81 1019.06 1018.74 1018.51 1018.12 1017.87 1017.78 1018.01 1018.47 1018.51 1018.70 1018.69 1018.53 1018.28 1018.37 1018.17 1017.80 1017.59 1016.01 1015.07 1014.04 1013.03 1012.56 1012.14 1011.79 1011.28 1010.58 1009.81 1009.22 1008.70 1008.06 1007.33 1006.75 1006.13 1005.35 1004.66 1004.03 1003.11 1002.32 1001.73 1001.72
1019.23 1019.48 1019.50 1019.19 1018.74 1018.83 1018.47 1018.63 1018.44 1018.79 1018.92 1019.09 1018.92 1018.74 1018.63 1018.58 1018.22 1018.16 1018.23 1017.94 1017.46 1015.77 1014.16 1013.26 1013.11 1012.37 1011.61 1010.94 1010.39 1009.66 1009.04 1008.49 1007.80 1007.25 1006.71 1005.99 1005.25 1004.51 1003.75 1002.91 1002.21 1001.55 1001.22
1019.45 1019.51 1019.77 1019.13 1019.20 1019.34 1019.15 1019.11 1018.97 1019.09 1019.21 1018.96 1018.98 1019.00 1018.89 1018.65 1018.53 1018.38 1017.92 1017.66 1017.52 1017.02 1015.78 1014.50 1013.48 1012.52 1011.71 1010.88 1010.09 1009.42 1008.81 1008.06 1007.58 1007.04 1006.48 1005.77 1005.24 1004.54 1003.80 1003.11 1002.22 1001.63 1001.15
1019.66 1020.07 1019.98 1019.48 1020.20 1019.86 1019.85 1019.24 1019.21 1019.22 1019.24 1019.38 1019.25 1019.18 1019.07 1018.99 1018.60 1018.13 1017.86 1017.54 1017.30 1017.02 1016.17 1014.63 1013.82 1012.59 1011.51 1010.77 1009.96 1009.19 1008.49 1007.87 1007.15 1006.59 1006.17 1005.62 1005.11 1004.41 1003.71 1003.08 1002.38 1001.67 1001.33
1020.39 1020.55 1019.84 1020.34 1019.94 1019.95 1019.64 1019.45 1019.68 1019.76 1019.72 1019.71 1019.65 1019.47 1019.34 1018.99 1018.49 1018.20 1018.00 1017.67 1017.30 1016.77 1016.10 1014.85 1013.64 1012.48 1011.94 1011.21 1010.42 1009.39 1008.36 1007.74 1007.16 1006.53 1005.92 1005.37 1004.97 1004.35 1003.65 1003.01 1002.39 1001.70 1001.15
1020.65 1020.44 1020.21 1020.14 1020.31 1020.30 1020.10 1020.08 1020.07 1019.97 1019.97 1020.04 1019.98 1019.67 1019.42 1019.04 1018.74 1018.49 1018.25 1017.67 1017.12 1016.42 1015.79 1015.01 1013.77 1012.93 1012.19 1011.16 1010.58 1009.81 1008.89 1007.89 1007.04 1006.38 1005.91 1005.25 1004.78 1004.21 1003.57 1003.02 1002.48 1001.78 1001.20
1020.69 1020.56 1020.85 1020.76 1020.76 1020.76 1020.54 1020.42 1020.41 1020.41 1020.46 1020.22 1019.97 1019.90 1019.68 1019.43 1019.17 1018.88 1018.32 1017.75 1017.03 1016.36 1015.69 1014.88 1013.92 1013.08 1012.41 1011.59 1011.05 1010.18 1009.14 1008.30 1007.12 1006.53 1006.00 1005.21 1004.67 1004.07 1003.45 1002.99 1002.55 1002.05 1001.31
1021.12 1021.29 1021.40 1021.29 1021.39 1021.44 1021.18 1020.98 1020.92 1020.94 1020.79 1020.54 1020.41 1020.26 1020.01 1019.79 1019.45 1019.13 1018.60 1017.89 1017.13 1016.45 1015.82 1014.95 1014.11 1013.44 1012.61 1011.82 1011.41 1010.80 1009.90 1008.71 1007.42 1007.03 1006.26 1005.18 1004.60 1004.08 1003.43 1002.90 1002.51 1002.30 1002.02
1021.89 1021.94 1022.04 1022.19 1022.24 1022.11 1021.86 1021.50 1021.26 1021.19 1021.13 1021.20 1021.06 1020.63 1020.16 1019.82 1019.39 1018.94 1018.45 1017.98 1017.31 1016.55 1015.86 1015.14 1014.35 1013.68 1012.92 1012.53 1011.93 1011.25 1010.20 1009.08 1007.97 1007.22 1006.85 1005.44 1005.00 1004.31 1003.72 1003.15 1002.85 1002.55 1002.27
1022.58 1022.85 1022.94 1022.94 1022.80 1022.68 1022.43 1021.99 1021.62 1021.66 1021.72 1021.59 1021.29 1020.82 1020.26 1019.92 1019.48 1018.79 1017.99 1017.42 1016.85 1016.31 1015.90 1015.40 1014.59 1013.85 1013.12 1012.51 1012.14 1011.32 1010.46 1009.69 1008.86 1007.82 1007.43 1006.08 1005.29 1004.60 1003.94 1003.34 1002.94 1002.65 1002.46
1023.22 1023.38 1023.59 1023.56 1023.32 1022.97 1022.62 1022.30 1022.26 1022.13 1021.97 1021.68 1021.35 1020.91 1020.52 1020.00 1019.55 1018.84 1017.98 1017.30 1016.82 1016.25 1015.73 1015.27 1014.71 1013.98 1013.36 1012.52 1011.96 1011.57 1010.62 1009.82 1008.90 1007.90 1007.72 1006.81 1005.74 1005.06 1004.40 1003.89 1003.46 1003.10 1002.80
1023.67 1023.70 1023.84 1023.92 1023.69 1023.33 1023.31 1023.02 1022.76 1022.44 1021.93 1021.63 1021.38 1020.98 1020.57 1020.00 1019.44 1018.94 1018.43 1017.93 1017.04 1016.02 1015.41 1014.97 1014.25 1013.61 1012.97 1012.20 1011.59 1011.14 1010.33 1009.76 1008.95 1008.06 1007.78 1007.34 1006.48 1005.71 1004.86 1004.23 1003.78 1003.36 1003.04
1023.85 1023.85 1024.20 1024.26 1024.12 1023.79 1023.81 1023.38 1023.08 1022.65 1022.15 1021.89 1021.32 1020.81 1020.43 1020.13 1019.69 1019.31 1019.03 1018.76 1017.84 1017.03 1016.13 1014.84 1013.90 1013.17 1012.59 1011.81 1011.07 1010.80 1010.48 1010.02 1009.48 1008.52 1007.90 1007.60 1006.95 1006.52 1005.62 1004.65 1004.26 1003.94 1003.44
Wind_Speed
3 3 4 3 3 2 3 4 4 5 6 6 6 6 8 8 7 4 3 8 5 3 5 8 8 8 9 21 24 24 18 22 19 17 16 16 16 18 18 17 19 18 17
3 4 4 4 4 3 3 3 4 5 6 4 7 6 7 7 6 5 4 3 2 1 2 1 7 5 7 8 1 23 25 20 19 19 18 18 16 17 18 19 18 18 18
4 5 4 4 4 3 4 3 4 3 4 5 6 6 5 6 4 6 4 3 3 8 7 6 3 1 1 5 11 17 22 22 20 22 20 17 16 18 18 18 18 19 20
7 5 4 5 4 3 1 2 3 4 3 4 4 5 5 5 6 6 5 4 4 5 8 14 14 8 10 14 17 17 19 18 21 21 21 17 16 15 17 18 17 20 20
7 7 6 3 2 2 2 2 2 1 3 4 5 5 5 4 5 5 5 7 7 6 6 11 15 16 18 20 22 20 16 18 17 17 17 18 17 17 17 17 17 18 19
7 6 3 1 1 2 2 2 1 1 2 4 7 8 6 5 4 2 4 5 5 7 6 8 7 8 15 16 17 17 18 18 17 14 15 17 18 18 16 15 15 17 19
3 5 1 3 3 4 3 3 1 2 2 4 4 6 2 5 3 3 4 5 8 8 9 8 6 7 8 16 16 18 19 19 19 17 14 13 15 18 14 13 15 16 18
3 3 3 4 2 3 4 4 4 2 1 3 3 2 5 4 2 2 3 6 10 8 10 9 11 10 9 8 13 18 20 22 20 18 16 14 15 15 15 13 17 17 20
8 6 6 5 6 5 6 5 5 6 2 2 2 1 4 3 8 3 6 6 9 9 9 9 10 11 11 10 13 16 24 25 24 23 21 20 18 17 14 15 19 20 17
6 9 9 8 7 5 7 6 5 4 3 3 2 5 2 3 3 6 3 6 12 11 10 9 8 9 10 9 16 20 24 26 25 24 23 21 20 18 16 15 15 17 17
7 9 8 8 7 6 6 7 6 7 5 3 3 3 2 3 4 3 6 8 7 9 7 7 7 7 9 9 9 13 22 23 23 24 23 19 21 19 17 17 16 17 16
5 8 8 8 7 6 6 5 6 7 5 5 5 5 4 3 4 3 4 9 9 5 9 9 7 9 9 10 16 23 24 24 24 23 21 24 24 22 19 18 19 19 18
5 8 9 7 6 5 6 5 7 8 8 5 6 5 4 4 2 2 2 5 5 5 4 4 5 8 9 10 12 24 23 23 23 23 23 24 22 25 22 18 16 19 17
5 6 7 5 6 7 7 7 6 6 6 6 8 5 3 4 3 2 3 5 8 4 6 10 5 8 10 11 18 25 13 22 22 21 22 23 23 25 24 20 15 13 11
7 6 6 7 8 8 9 7 6 6 6 5 5 6 4 3 5 5 3 2 3 6 11 6 11 13 11 11 14 14 13 19 22 20 20 19 18 22 23 19 17 14 17
7 8 7 8 9 8 7 6 5 6 6 5 5 7 6 5 6 5 5 5 3 3 6 10 13 15 16 12 14 14 14 22 20 19 21 17 16 20 20 20 17 14 15
7 7 7 9 7 7 5 6 6 7 8 6 6 7 8 7 7 8 8 7 7 5 7 10 11 13 14 14 13 12 12 11 10 18 21 16 17 18 18 19 19 16 12
6 5 8 7 8 7 7 8 7 6 7 7 7 7 8 7 11 11 8 8 6 6 6 13 12 12 15 16 15 16 11 9 9 15 20 16 18 17 17 17 17 15 13
6 7 8 9 9 9 8 7 6 6 6 6 6 7 8 8 9 8 8 6 6 7 8 8 12 10 11 11 13 13 13 12 8 16 14 19 18 18 16 15 15 15 8
7 7 7 9 9 8 9 8 7 7 7 7 8 8 7 7 9 10 9 10 9 9 9 8 9 9 10 13 10 11 12 11 10 8 12 14 15 16 15 13 12 16 11
7 8 8 10 8 8 8 8 7 8 8 8 8 7 5 9 15 13 8 10 10 8 8 8 8 8 9 12 11 9 9 10 10 3 10 9 9 9 9 10 10 14 16
8 8 9 9 8 7 12 10 8 6 7 6 6 6 6 8 12 14 14 12 9 8 8 7 4 9 8 8 8 8 8 8 6 3 7 11 6 9 8 7 12 11 13
6 7 8 7 7 7 11 10 10 5 3 3 5 6 8 8 11 12 13 12 12 13 11 9 9 10 9 9 9 10 10 9 7 8 8 8 4 8 8 7 10 9 9
5 5 5 5 4 7 12 12 7 4 3 5 6 7 7 10 12 13 13 13 13 11 11 9 10 10 10 10 8 6 10 8 8 5 2 4 7 9 6 6 11 13 11
5 4 4 5 5 7 12 12 6 3 4 5 5 7 8 10 15 15 12 14 14 13 12 14 14 14 13 14 9 7 7 7 6 6 3 5 5 8 3 4 7 12 12
5 5 5 4 6 6 9 11 8 3 5 5 5 7 10 13 14 15 11 11 12 13 14 16 14 12 12 11 12 4 6 6 5 4 3 7 6 6 5 3 5 5 8
Wind_Direction
217 235 259 257 259 267 252 268 280 279 283 280 276 266 285 281 285 283 291 327 24 73 81 80 63 49 16 18 8 327 258 244 244 254 260 252 248 243 237 231 234 234 235
217 229 249 254 264 256 256 259 264 285 291 291 293 275 271 278 284 307 276 239 208 207 169 311 126 123 108 88 104 271 292 255 249 256 263 263 263 256 251 237 230 232 236
231 244 253 261 264 277 276 266 289 292 291 291 273 287 283 281 289 274 250 246 290 290 304 294 312 318 67 231 240 268 289 272 252 262 266 260 265 258 252 237 235 234 231
210 232 246 246 256 262 242 286 299 309 297 299 298 296 297 307 297 266 261 302 290 278 303 318 312 323 292 292 284 285 282 278 268 260 271 271 259 248 240 238 235 237 233
220 221 232 250 265 284 302 316 315 276 300 309 304 288 279 270 267 267 300 295 277 283 295 306 318 316 310 309 307 296 294 287 286 272 267 269 265 260 247 239 231 239 239
226 229 221 221 332 328 2 356 316 311 297 312 309 300 288 279 276 322 307 294 300 308 314 322 322 326 325 328 329 325 319 311 308 307 282 268 268 264 254 242 235 233 237
252 251 130 101 65 54 32 2 323 3 345 328 309 316 264 300 346 360 321 344 8 8 20 4 352 340 333 338 332 335 334 337 336 326 317 303 285 269 251 241 238 237 236
5 38 51 77 120 126 61 358 33 354 9 355 325 298 330 341 6 301 5 42 26 11 6 2 349 342 351 346 349 355 360 350 344 343 340 334 328 317 279 256 241 235 233
31 49 55 65 61 66 70 46 33 42 5 305 15 313 323 320 333 338 1 56 23 355 349 350 348 355 5 6 2 354 352 351 350 350 348 340 335 325 303 288 261 232 227
34 60 58 52 51 53 61 49 32 30 30 17 322 5 345 9 334 318 3 353 2 336 329 343 347 358 7 0 346 342 343 340 338 338 339 337 330 314 314 307 293 251 230
51 64 66 68 63 52 51 53 50 45 43 68 34 337 349 340 51 316 315 337 324 324 325 337 343 356 353 352 341 341 341 340 337 335 336 341 335 322 312 309 301 292 239
52 50 64 63 57 56 50 47 55 52 42 48 53 47 42 16 356 350 310 330 320 313 321 334 348 352 345 344 338 339 342 342 334 332 339 337 336 324 311 300 296 290 244
52 47 49 47 53 52 57 57 58 54 44 52 40 38 43 48 15 322 309 331 318 319 332 327 331 335 332 336 330 334 335 334 335 330 331 331 335 339 313 299 290 290 239
68 63 70 68 63 57 52 52 57 56 47 48 45 41 40 30 17 7 357 334 330 317 314 319 316 328 333 331 323 326 322 326 327 332 331 326 325 331 331 304 290 284 228
98 81 78 72 59 55 55 56 60 58 55 46 40 33 24 1 8 2 353 350 331 323 331 348 334 327 324 317 317 320 320 320 325 325 331 326 334 336 339 323 304 290 207
95 76 72 68 57 49 51 56 56 45 51 37 34 20 16 9 3 358 356 353 336 312 304 334 325 323 329 318 313 312 312 319 318 322 331 331 336 339 334 343 323 298 237
78 82 74 67 67 54 38 49 47 42 42 28 20 18 16 7 12 1 1 358 353 324 301 309 321 324 326 329 328 324 311 314 314 322 327 326 337 330 333 336 342 320 298
77 91 79 77 59 46 35 40 43 39 38 24 17 21 19 11 13 4 360 356 328 318 296 318 323 334 344 335 338 328 322 316 308 314 327 328 324 322 327 331 333 327 312
80 68 66 55 44 31 30 34 42 44 44 35 24 26 16 7 4 354 347 324 306 312 314 308 324 328 330 337 336 336 337 323 310 325 336 322 324 323 323 326 325 341 302
77 65 55 52 38 29 31 35 39 43 47 41 33 21 7 0 353 347 331 332 326 319 316 304 317 326 333 340 335 336 335 334 321 332 321 322 324 322 321 321 330 355 351
65 69 56 45 28 31 29 32 48 46 40 32 26 14 342 3 0 352 339 337 332 330 321 319 316 321 334 343 344 330 326 324 333 356 334 331 334 340 344 337 339 351 356
67 65 52 46 34 35 21 39 56 52 42 32 7 351 337 6 353 343 338 331 328 334 326 322 315 327 321 329 329 325 327 341 345 348 334 324 344 338 344 347 344 357 356
79 69 53 47 41 37 21 30 43 49 34 354 346 352 2 359 351 343 340 346 339 338 333 326 321 322 317 319 324 325 328 326 324 314 327 318 334 336 348 4 4 1 358
97 81 60 48 31 39 29 27 29 37 22 14 1 3 359 355 355 355 351 350 346 337 340 330 325 318 319 310 311 297 300 306 302 311 344 308 332 335 335 354 358 5 5
110 85 62 48 35 32 18 21 13 19 37 16 356 2 9 6 356 3 6 351 340 344 345 331 321 313 312 310 291 317 325 322 327 331 356 326 334 328 311 332 346 351 5
108 93 73 44 41 39 14 21 7 6 22 351 352 8 12 12 1 6 11 355 348 346 331 332 337 339 338 325 311 271 301 321 327 306 356 345 338 345 330 314 332 347 354